Location: Grantham
(50.0698°N, 112.0083°W)
Time: 06:03:38
(UTC+00:00)

ISS - Pass Details

Date: 01 December 2021
Orbit: 413 x 423 km, 51.6° (Epoch: 20 January)

Event Time Altitude Azimuth Distance (km) Brightness Sun altitude
Rises 00:33:47 0° 274° (W) 2,382 1.4 -10.0°
Reaches altitude 10° 00:35:54 10° 277° (W) 1,515 0.1 -10.3°
Maximum altitude 00:39:17 64° 360° (N) 473 -3.6 -10.8°
Enters shadow 00:41:43 17° 80° (E) 1,139 -2.2 -11.2°
